This is the latest recevied weather packets stored in our database for station/object KF6ILA. If no packets are shown the sender has not sent any weather packets the latest 10 day(s).
| Time | Temp. | Humidity | Pressure | Rain* | Wind** | Luminosity | Snow |
|---|---|---|---|---|---|---|---|
| 1787903559 | 26.67° C | 37% | 1016.8 hPa | 0 mm | - | 0 W/m² | - |
| 1787903262 | 26.67° C | 37% | 1016.7 hPa | 0 mm | - | 0 W/m² | - |
| 1787902965 | 26.67° C | 37% | 1016.8 hPa | 0 mm | - | 0 W/m² | - |
| 1787902668 | 26.67° C | 36% | 1016.8 hPa | 0 mm | - | 0 W/m² | - |
| 1787902371 | 26.67° C | 36% | 1016.8 hPa | 0 mm | - | 0 W/m² | - |
| 1787902074 | 26.67° C | 36% | 1016.8 hPa | 0 mm | - | 0 W/m² | - |
| 1787901480 | 26.67° C | 36% | 1016.7 hPa | 0 mm | - | 0 W/m² | - |
| 1787901183 | 26.67° C | 36% | 1016.9 hPa | 0 mm | - | 0 W/m² | - |
| 1787900886 | 26.67° C | 36% | 1016.8 hPa | 0 mm | - | 0 W/m² | - |
| 1787900589 | 26.67° C | 35% | 1016.7 hPa | 0 mm | - | 0 W/m² | - |
| 1787900292 | 26.67° C | 35% | 1016.7 hPa | 0 mm | - | 0 W/m² | - |
| 1787899995 | 26.11° C | 35% | 1016.7 hPa | 0 mm | - | 0 W/m² | - |
| 1787899698 | 26.11° C | 35% | 1016.6 hPa | 0 mm | - | 0 W/m² | - |
| 1787899401 | 26.11° C | 35% | 1016.7 hPa | 0 mm | - | 0 W/m² | - |
| 1787899104 | 26.11° C | 36% | 1016.6 hPa | 0 mm | - | 0 W/m² | - |
| 1787898807 | 25.56° C | 37% | 1016.6 hPa | 0 mm | - | 0 W/m² | - |
| 1787897916 | 25.56° C | 43% | 1016.5 hPa | 0 mm | - | 0 W/m² | - |
| 1787897619 | 25.56° C | 44% | 1016.5 hPa | 0 mm | - | 0 W/m² | - |
| 1787897025 | 25.56° C | 41% | 1016.5 hPa | 0 mm | - | 0 W/m² | - |
| 1787896728 | 25.56° C | 39% | 1016.5 hPa | 0 mm | - | 0 W/m² | - |
| 1787896431 | 26.11° C | 38% | 1016.5 hPa | 0 mm | - | 0 W/m² | - |
| 1787896134 | 26.11° C | 37% | 1016.5 hPa | 0 mm | - | 0 W/m² | - |
| 1787895837 | 26.11° C | 35% | 1016.5 hPa | 0 mm | - | 0 W/m² | - |
| 1787895540 | 26.11° C | 34% | 1016.4 hPa | 0 mm | - | 0 W/m² | - |
| 1787895243 | 26.11° C | 34% | 1016.4 hPa | 0 mm | - | 0 W/m² | - |
* Rain latest hour (hover to see other rain measurements)
** Current wind speed in m/s (hover to see current wind gust speed)